Theta_e
333 333 334 333 334 334 334 334 335 335 337 338 340 341 342 343 343 343 344 343 342 340 339 339 340 341 341 341 342 342 341 341 341 342 345 345 344 342 342 343 345 348 348 342 333 330 327 324 324 322 320 319 318 322 326 323 324 330 335 337 338 338 337 338 339 339 338 335 333 334 333 332 331 328 329 333 333 330 330 329 330 330 329 331 333
334 333 333 332 332 332 332 333 333 334 336 337 338 339 340 341 342 343 343 343 341 341 340 340 340 341 341 341 341 341 341 341 340 342 344 345 344 342 341 341 341 344 347 342 335 333 330 326 325 324 321 320 318 321 327 328 326 330 333 334 338 338 335 335 338 339 338 336 334 333 332 330 332 331 330 332 334 334 333 331 331 331 330 331 333
337 333 333 331 331 332 332 332 332 333 334 335 336 337 338 339 340 341 342 342 341 341 341 342 341 341 342 341 341 341 341 341 340 341 343 344 345 343 341 340 339 341 343 340 335 335 333 328 327 326 324 322 320 321 326 329 329 331 334 335 336 339 337 334 336 339 340 338 336 335 334 331 331 331 330 332 333 332 333 333 332 331 331 330 331
343 338 335 333 332 332 332 332 332 332 333 333 334 334 336 337 338 338 339 341 341 340 341 342 343 342 342 342 342 340 340 341 341 341 342 343 344 344 342 339 338 339 339 338 336 336 334 330 329 328 326 323 323 323 324 326 326 327 332 334 332 337 340 337 334 336 339 339 337 336 335 334 332 331 330 331 332 331 331 332 332 331 331 330 331
347 343 339 338 336 334 334 334 334 333 332 332 333 334 335 337 337 336 337 339 340 341 341 342 343 343 343 342 342 340 339 340 341 341 341 341 343 344 343 340 338 338 339 338 337 336 335 332 330 330 327 325 325 325 323 323 323 323 326 328 327 331 338 339 334 332 335 338 339 337 335 334 333 332 330 330 332 333 332 331 331 331 331 330 332
349 346 343 341 341 339 338 337 336 336 335 335 336 336 337 338 338 337 337 338 340 342 341 341 342 343 343 343 342 341 339 338 339 341 341 341 341 343 344 342 339 338 338 338 337 336 335 333 331 330 328 326 326 325 323 322 322 322 323 324 324 326 333 336 333 330 330 335 338 338 336 334 335 334 331 329 331 333 333 333 333 333 333 332 333
350 347 345 343 343 341 340 340 340 339 339 339 339 339 339 339 340 340 340 339 340 342 342 341 341 342 343 344 344 343 340 338 338 339 340 341 341 342 344 343 340 338 338 337 336 336 335 334 333 331 328 326 326 325 324 323 322 322 322 322 323 325 330 334 332 329 329 334 337 337 336 336 336 335 334 331 330 330 331 333 335 336 337 337 335
351 350 347 345 344 341 341 341 341 341 341 342 341 342 342 341 341 344 344 342 341 342 343 342 341 341 343 344 344 344 343 340 338 338 339 340 341 341 342 344 342 339 337 338 337 336 335 334 334 333 329 326 325 325 323 322 322 322 322 322 323 325 330 333 332 331 333 336 338 337 337 336 336 336 336 332 329 331 332 334 335 336 337 338 336
352 350 349 346 344 343 343 343 342 342 342 342 342 343 343 343 343 345 346 345 343 343 344 344 343 343 343 344 345 345 345 343 339 337 337 338 339 341 342 343 344 341 338 337 338 337 336 335 334 335 333 327 325 325 323 321 321 322 321 322 323 323 327 331 333 333 335 338 338 337 337 337 335 337 338 337 334 334 335 335 334 334 335 336 336
352 350 349 347 345 345 345 344 343 343 342 342 343 343 343 344 345 345 346 345 344 345 345 345 345 344 344 344 345 346 345 344 341 336 335 336 338 339 341 342 343 343 340 338 338 338 337 336 334 335 335 332 328 327 325 321 320 322 322 322 323 322 324 330 334 335 336 338 338 338 338 337 336 336 337 338 338 336 335 334 334 334 334 333 333
351 349 349 348 348 347 345 344 344 343 343 343 343 343 344 345 345 346 347 346 346 345 346 347 346 347 347 346 345 346 346 344 342 338 334 335 337 337 339 341 342 344 343 340 338 338 338 338 337 335 335 334 333 332 330 325 320 321 323 322 322 323 323 329 335 337 337 338 338 339 338 337 337 337 337 336 336 336 336 335 334 333 333 332 331
350 348 349 350 349 347 344 344 344 343 344 344 344 345 345 345 347 347 347 347 347 346 346 347 347 347 349 349 347 347 347 345 343 339 334 333 336 336 337 339 340 342 343 342 339 338 338 339 339 338 336 335 335 335 335 331 324 321 324 324 323 323 324 328 334 338 338 338 338 339 338 337 336 336 335 335 334 335 335 335 334 334 333 331 329
350 348 349 349 349 346 345 345 344 344 344 345 346 346 345 345 346 346 347 348 348 348 348 348 350 351 350 351 351 347 347 347 345 342 338 334 333 335 336 337 338 340 342 343 342 340 338 339 339 339 337 335 336 337 338 337 331 324 324 326 324 322 324 326 329 334 336 337 338 338 336 335 335 334 334 333 332 333 333 333 334 334 332 329 327
352 349 347 347 347 345 344 345 344 345 346 346 346 347 345 345 346 345 348 348 348 353 353 351 355 357 353 354 356 353 349 348 346 345 343 339 335 335 335 337 337 338 340 341 343 342 341 339 339 339 339 336 336 338 338 340 337 329 325 326 325 323 324 325 326 329 333 335 336 336 334 333 332 332 331 330 330 331 332 333 333 332 329 326 323
351 349 346 345 345 344 343 344 344 345 346 346 346 346 345 346 345 346 349 348 349 356 356 353 357 359 356 355 359 358 354 350 347 347 346 343 340 337 337 337 336 337 338 339 341 343 343 342 340 339 339 338 337 338 338 340 341 335 327 324 324 324 324 325 326 327 329 330 330 332 333 332 331 330 330 330 331 331 331 332 331 328 324 321 321
349 347 345 343 343 342 343 344 344 345 346 346 347 346 346 346 346 347 349 349 351 355 355 355 358 359 357 356 357 358 358 355 350 348 347 345 343 339 337 337 336 336 337 338 340 341 342 343 343 342 341 339 338 338 338 340 342 339 332 326 323 324 325 326 326 325 327 328 328 331 334 334 332 330 330 331 331 331 330 329 327 324 321 321 322
346 345 343 342 342 343 344 343 344 345 346 346 346 346 346 346 346 348 348 350 352 353 353 356 359 359 357 356 355 357 359 357 352 350 348 345 343 338 335 336 336 336 336 337 339 341 341 342 343 343 343 341 340 340 340 340 341 341 339 334 329 326 327 328 328 326 326 328 329 331 334 335 332 330 330 329 328 329 329 327 324 324 325 324 324
342 342 342 343 344 345 345 345 345 345 345 346 346 346 347 347 348 349 348 349 351 352 353 356 357 357 358 358 356 357 358 356 354 353 350 346 344 339 336 336 336 335 336 337 338 339 341 343 342 342 344 343 342 341 341 342 342 342 342 341 338 333 332 332 332 331 329 329 331 331 333 334 332 331 330 329 328 329 328 324 323 326 326 324 323
343 343 344 346 346 345 345 344 345 344 344 345 346 346 348 349 349 350 349 349 351 353 356 357 356 356 359 359 358 358 358 358 356 354 351 349 347 343 340 338 337 335 336 336 337 339 341 343 342 341 343 344 343 342 342 344 345 343 342 343 342 339 335 334 335 335 332 330 331 332 333 333 333 332 331 329 329 329 325 321 322 324 323 321 321
345 344 344 344 344 343 344 343 343 344 344 345 346 347 347 348 349 349 350 352 353 354 356 358 357 358 360 359 358 358 359 358 358 357 354 352 351 349 346 343 339 337 336 336 337 339 341 345 346 343 342 344 344 343 344 346 347 345 344 344 344 342 338 335 335 336 334 332 331 331 333 334 333 332 331 330 330 327 322 319 321 322 321 320 320
343 342 343 343 343 343 343 343 344 345 346 346 347 348 348 349 349 349 351 355 357 356 356 357 357 359 359 359 358 359 358 358 358 358 357 355 353 352 351 349 343 339 337 337 338 339 341 346 348 347 343 343 345 345 345 347 348 347 345 345 345 343 338 335 336 337 336 333 333 333 334 335 334 332 332 331 329 324 320 319 320 320 319 320 320
346 343 342 342 344 345 344 345 345 346 346 347 348 349 349 350 349 349 352 356 357 357 356 355 356 358 359 359 358 359 358 357 357 357 357 356 355 353 352 351 349 345 343 340 339 339 339 344 347 347 344 344 345 345 345 348 348 348 346 345 345 342 338 335 336 337 335 335 335 335 335 335 334 332 331 330 326 321 319 320 320 319 319 319 319
353 350 346 344 345 347 346 346 346 346 347 347 348 348 348 349 350 350 352 355 356 358 358 357 357 359 359 359 359 359 359 358 358 357 357 356 355 355 353 352 351 350 348 345 342 341 342 342 343 343 344 345 345 345 346 348 349 348 346 345 345 343 337 333 333 334 334 335 336 334 334 334 333 331 329 326 324 321 320 320 320 319 319 318 317
352 350 348 347 347 349 351 349 347 347 348 347 348 349 349 350 352 353 354 356 357 360 361 359 359 360 359 359 359 359 359 359 359 358 357 356 355 354 354 353 353 352 352 351 350 349 348 347 345 343 341 343 345 345 346 349 349 348 347 345 344 341 336 332 333 334 333 333 334 333 333 333 332 330 328 324 322 321 320 320 319 318 318 318 317
346 347 347 347 347 349 351 351 349 348 349 350 350 350 350 352 353 354 357 359 360 361 362 360 360 360 359 359 360 359 359 360 359 358 357 356 355 355 354 353 352 353 353 352 354 355 354 351 350 348 343 341 344 346 347 349 349 348 347 344 341 338 335 333 333 333 332 332 333 333 333 333 332 329 326 322 321 320 319 319 319 318 317 317 316
346 347 347 348 348 349 351 353 353 351 350 352 354 353 353 354 354 355 359 361 360 361 362 361 361 360 360 360 360 360 360 360 359 359 359 357 357 356 355 354 354 354 353 353 354 355 355 353 352 350 346 342 343 345 347 348 349 347 345 343 339 336 333 332 333 333 332 332 333 333 333 333 331 328 323 320 319 319 319 319 318 318 318 318 318
347 348 349 350 350 350 351 354 356 357 354 354 356 357 358 358 359 360 361 361 360 361 362 361 361 360 360 361 361 360 360 360 360 360 359 358 357 357 357 356 356 355 354 354 354 353 354 354 353 352 349 345 344 345 347 348 348 346 344 341 339 335 333 332 333 333 331 331 332 333 332 331 329 325 321 319 319 319 319 319 319 319 321 321 320
349 349 349 350 350 351 352 353 355 359 360 359 359 361 361 361 361 361 361 360 360 361 361 361 361 360 360 360 360 360 361 361 361 361 359 358 358 358 358 357 356 355 355 354 354 353 352 352 353 352 351 349 348 349 349 349 348 347 343 341 338 335 333 333 333 331 330 331 332 332 330 329 327 323 319 319 319 319 319 318 318 320 321 321 320
357 354 354 355 353 352 353 353 351 354 358 359 359 360 359 359 360 361 361 361 361 361 361 361 361 360 361 360 360 361 361 361 361 361 361 359 357 357 357 356 356 355 355 354 352 350 350 351 352 352 351 350 349 349 349 347 346 344 341 339 337 334 333 333 331 329 329 331 332 331 330 327 324 321 319 319 319 319 319 319 318 319 320 321 319
360 359 359 360 359 357 358 358 357 356 357 358 359 358 357 356 357 357 358 359 359 359 360 360 360 360 361 361 361 361 361 361 361 361 361 360 358 357 357 356 356 355 355 354 351 348 348 349 350 351 351 350 349 349 348 346 344 341 339 338 337 334 333 332 330 329 330 332 332 331 330 326 322 320 319 320 319 319 320 319 319 319 320 320 319
352 353 352 353 353 353 355 356 356 356 357 359 360 359 359 358 357 356 355 356 356 356 357 356 357 357 358 359 359 359 360 361 360 360 361 360 359 358 358 357 357 356 355 354 351 348 347 348 348 349 350 349 348 348 347 344 342 340 339 339 337 334 333 331 329 329 331 331 331 331 328 323 320 320 320 320 321 321 322 322 321 321 320 319 319
345 344 341 341 341 341 342 343 344 345 346 349 350 350 351 353 355 354 351 351 352 353 354 354 355 355 356 357 357 357 357 358 358 359 359 359 358 358 358 358 357 356 356 355 351 348 347 346 346 348 349 347 347 346 344 342 341 341 340 339 336 333 331 330 329 330 331 330 329 328 324 321 320 320 321 321 322 322 323 324 323 321 320 319 318
339 336 334 334 335 335 336 336 336 336 336 337 338 339 340 343 346 347 344 341 342 344 346 347 349 350 352 353 354 355 356 356 357 357 358 358 358 358 357 358 358 356 356 354 351 347 346 346 346 348 347 346 345 344 342 341 341 341 341 339 335 332 331 331 330 330 330 329 327 324 322 321 321 321 322 322 322 322 323 323 322 321 320 319 318
332 331 331 332 331 331 333 334 334 334 334 333 333 334 334 336 338 337 335 334 334 335 335 336 337 339 341 343 346 348 350 352 354 356 356 357 358 357 357 358 357 357 356 354 350 348 347 345 345 346 346 345 344 342 341 340 341 341 341 337 333 331 332 332 330 329 329 328 326 323 321 321 321 322 323 323 323 323 323 322 320 319 318 318 318
332 331 330 330 330 331 332 333 333 333 333 332 332 332 332 333 333 333 332 331 331 331 331 332 333 333 334 334 335 338 341 344 348 352 353 354 355 356 357 357 356 355 354 350 348 348 347 345 344 344 345 344 343 341 340 340 340 341 339 335 332 332 332 331 328 328 329 327 326 323 322 322 322 323 323 324 324 323 322 321 319 318 318 317 317
336 335 331 329 330 331 331 333 333 332 332 333 333 332 333 333 332 331 331 331 330 331 333 334 336 337 338 336 334 334 334 336 340 344 348 351 351 353 354 356 356 354 349 345 344 346 345 344 343 343 343 342 341 339 338 338 340 340 337 333 332 332 331 329 328 328 328 327 325 324 323 323 323 324 324 324 324 323 321 320 319 318 317 317 316
334 334 331 330 330 331 332 332 332 332 332 332 331 332 332 333 332 332 332 332 331 332 333 335 336 337 338 338 337 336 336 335 336 338 342 346 347 348 350 354 356 352 345 341 342 344 343 341 341 341 341 341 339 337 337 338 338 336 334 333 332 331 329 328 328 327 327 326 325 324 323 323 324 324 324 323 322 321 320 319 319 318 316 315 314
333 332 330 329 330 333 336 336 335 334 333 331 331 332 332 332 333 334 333 333 332 331 332 333 334 333 334 334 334 334 335 336 337 337 339 343 345 344 344 346 348 346 341 339 341 343 341 339 338 340 340 339 338 336 336 337 335 333 333 333 332 329 329 328 327 327 326 326 324 323 323 323 324 325 324 322 321 320 319 319 318 316 315 313 311
337 336 333 332 332 335 338 339 339 339 338 334 332 333 333 335 337 337 334 333 332 331 331 333 333 332 331 331 331 332 333 334 335 334 334 336 339 339 337 336 337 337 337 339 341 340 338 337 338 340 339 338 337 335 335 334 333 332 332 332 330 329 328 327 327 327 326 325 324 324 323 323 324 324 323 321 320 319 319 317 316 315 314 313 311
340 339 338 336 337 338 339 340 340 341 341 339 337 337 337 338 338 338 336 334 333 332 332 333 333 333 332 332 333 334 334 333 332 330 328 329 331 331 331 332 334 336 337 338 338 337 337 338 339 337 334 333 332 331 331 332 332 331 331 330 329 328 327 326 327 327 325 324 325 325 324 324 324 323 321 320 319 318 318 316 315 314 314 313 312
341 341 340 339 339 339 339 340 341 341 341 340 340 340 340 339 339 339 337 336 334 333 333 334 334 334 333 333 334 335 334 333 331 329 328 327 328 329 330 332 334 335 335 336 337 338 339 338 334 331 328 328 329 330 331 332 331 330 330 329 328 327 326 326 327 326 325 324 326 326 325 324 323 322 320 319 318 317 316 316 315 314 313 313 312
340 340 340 340 340 340 340 340 341 341 341 341 341 341 341 340 341 340 339 337 335 334 334 335 336 336 335 335 335 336 335 333 331 330 329 329 330 332 333 334 334 334 335 336 337 337 335 331 328 328 329 330 331 331 331 332 332 331 330 328 327 326 326 327 327 326 325 325 325 325 324 323 321 320 319 319 317 316 315 315 315 314 314 313 312
337 338 338 338 339 339 339 340 340 340 340 340 339 339 340 340 340 340 340 338 337 336 336 337 338 337 337 337 337 336 334 333 332 332 332 332 332 334 336 337 337 336 336 336 335 333 330 328 328 330 331 332 332 331 331 332 332 330 328 327 327 327 327 328 327 326 326 325 325 324 323 322 320 319 318 317 316 316 315 315 315 314 314 313 313
335 335 336 336 336 337 337 337 338 338 338 339 339 338 338 339 339 339 339 339 338 337 337 337 338 338 338 337 337 336 335 335 335 335 335 336 336 337 339 338 336 334 333 332 331 330 329 330 331 333 333 332 332 332 332 331 329 327 327 327 328 327 327 328 327 326 325 325 324 323 322 320 319 318 317 316 316 316 316 315 315 315 314 313 313
333 333 334 333 334 334 334 334 335 335 336 337 337 337 338 338 337 337 337 338 338 338 337 337 337 337 337 336 336 335 335 335 335 335 336 336 336 336 336 335 334 334 334 334 333 332 332 333 333 334 334 333 333 332 331 328 327 328 328 328 327 327 327 327 326 325 324 324 323 322 321 319 318 317 317 316 316 316 316 316 315 314 314 313 312
331 331 331 332 331 331 331 331 332 333 333 334 334 335 336 336 336 336 336 335 336 337 337 336 336 336 336 336 335 335 334 334 334 333 333 333 333 333 332 332 332 332 332 334 335 335 334 334 334 334 334 332 331 330 328 326 327 329 329 327 326 326 326 326 325 324 324 323 322 321 319 319 318 317 317 317 317 316 316 315 315 314 313 312 312
330 330 330 330 330 330 330 330 330 331 331 331 331 332 333 333 334 334 334 334 334 335 335 334 335 335 335 334 333 333 332 332 332 333 332 332 332 332 331 331 332 332 333 334 334 334 333 333 333 333 331 329 328 327 326 325 326 326 326 326 326 326 325 325 324 323 323 322 321 320 319 318 318 318 317 316 316 316 315 315 314 314 313 312 312
328 328 329 329 329 329 329 329 329 329 329 329 329 329 329 330 331 331 332 333 333 334 333 333 333 334 333 332 331 330 329 330 331 332 331 331 331 331 331 332 333 334 335 335 334 334 334 334 332 330 328 326 325 325 324 324 325 325 326 326 326 325 325 324 323 322 321 320 320 319 318 318 317 317 316 316 315 315 314 314 313 313 313 312 311
325 325 325 326 327 327 327 327 327 328 328 327 327 327 326 326 327 329 329 331 332 332 332 332 332 333 333 332 332 331 331 331 332 332 332 331 330 330 330 331 331 331 332 333 333 333 334 333 330 328 325 324 324 324 324 324 325 326 326 326 325 325 324 323 322 321 320 319 318 318 317 317 317 316 316 315 314 314 314 313 313 312 312 311 310
323 323 323 323 324 324 325 325 326 326 327 326 326 326 325 325 325 325 327 328 329 330 330 331 331 332 332 331 331 331 331 331 332 332 332 332 331 329 327 326 327 329 329 329 329 330 330 329 327 325 324 324 324 323 324 324 325 325 325 325 324 324 323 323 321 320 318 317 317 317 316 316 316 316 315 315 314 314 314 313 313 312 311 310 309
320 320 320 321 322 322 323 323 324 325 325 326 326 326 326 326 325 325 325 326 326 326 327 328 328 329 329 330 331 330 330 331 331 330 330 330 331 330 328 328 329 329 329 327 326 326 326 325 324 323 323 324 324 324 325 325 325 325 325 324 323 323 322 321 319 316 313 314 316 317 316 316 316 315 315 314 314 313 313 312 311 311 310 309 309
Wind_Speed
48 48 48 48 48 48 47 46 45 45 44 43 43 42 41 40 38 36 35 34 33 32 32 32 31 30 29 28 28 28 27 25 25 25 24 24 25 25 24 25 22 18 16 19 22 22 21 21 20 19 18 17 16 15 14 13 12 12 13 12 12 12 11 10 8 7 6 6 5 5 7 7 7 7 8 8 9 7 8 9 8 8 9 9 9
48 48 48 48 48 48 48 47 46 46 45 45 44 44 43 42 40 38 37 36 35 34 34 33 33 32 31 30 30 29 29 27 26 27 27 26 26 25 25 27 26 22 19 21 24 24 23 22 22 21 20 18 17 16 15 14 13 13 14 13 13 13 12 11 10 8 7 7 6 7 8 8 7 8 8 8 9 9 8 9 9 10 10 9 9
47 47 48 48 48 48 48 47 47 46 46 46 45 44 44 43 41 40 38 38 38 37 36 35 34 34 34 33 32 31 30 29 29 29 29 29 28 27 26 28 29 27 25 26 26 25 25 25 24 23 22 21 19 17 16 16 15 15 15 15 14 14 13 11 10 10 8 8 7 7 8 8 8 9 9 9 10 11 9 9 10 10 11 11 11
46 46 47 47 47 48 48 47 47 47 46 46 46 45 44 43 43 41 39 39 40 39 37 36 36 35 35 35 35 34 33 32 31 31 31 31 30 28 28 29 30 30 29 29 28 27 27 27 26 26 25 24 21 20 18 18 18 17 17 17 15 14 14 13 11 10 10 9 8 8 8 8 9 9 9 9 10 11 11 11 11 11 12 13 12
46 47 46 46 46 47 47 47 48 48 47 47 47 46 46 45 44 43 41 39 40 40 39 38 37 37 38 38 38 37 36 35 34 33 33 33 32 30 29 29 30 31 31 31 30 29 28 28 27 28 28 27 24 22 21 20 19 18 18 19 18 15 15 14 12 11 11 10 9 9 9 9 9 10 10 10 10 10 11 12 12 12 13 13 12
45 47 47 46 47 47 47 48 48 48 48 47 47 47 47 46 46 45 42 40 40 40 40 40 39 39 39 39 39 39 38 38 37 36 35 35 34 32 31 31 31 32 32 32 31 30 29 29 28 29 30 30 27 25 24 22 21 20 20 20 19 17 16 15 13 12 12 11 10 9 9 9 10 10 11 10 10 11 11 11 11 13 14 13 12
45 47 48 48 48 48 47 47 47 47 47 47 47 47 46 46 46 45 43 41 40 40 41 41 40 39 39 39 39 39 39 40 40 39 37 37 36 35 34 33 33 33 33 33 33 32 31 30 30 30 32 31 30 28 27 25 23 22 22 21 20 19 17 16 14 13 12 11 11 10 10 10 10 11 11 12 12 13 13 12 11 11 12 12 13
44 46 48 49 50 50 49 48 47 47 46 46 46 46 46 45 45 44 44 42 41 40 41 42 41 40 39 40 40 39 40 41 42 42 40 39 39 38 37 35 34 34 35 35 34 33 33 33 32 32 33 32 31 30 30 28 26 25 24 22 21 21 19 18 16 14 13 12 12 11 10 11 11 11 12 13 14 14 13 12 11 10 10 10 12
43 46 48 50 51 51 50 49 48 47 47 47 47 47 46 45 45 44 44 43 41 39 39 40 40 40 40 40 40 40 40 42 44 44 43 42 42 40 39 38 36 35 36 36 35 35 34 34 34 34 34 34 32 31 31 29 28 27 26 25 24 23 22 20 18 16 15 14 13 12 12 12 12 12 12 13 14 14 12 12 13 12 11 10 11
43 46 48 50 50 50 50 49 49 48 48 48 49 48 47 46 46 46 45 44 42 40 39 40 40 40 40 40 41 41 42 43 44 46 45 44 44 42 41 41 39 37 37 37 37 36 36 36 36 36 36 36 33 31 30 30 29 28 27 26 25 24 24 22 20 19 17 16 15 14 13 13 13 13 14 14 14 14 12 12 12 11 11 11 11
43 46 47 48 48 48 49 49 48 48 48 48 49 49 48 48 47 47 46 46 44 42 41 41 41 40 39 40 41 42 43 44 45 46 47 46 45 45 43 42 41 39 38 39 39 38 38 38 38 38 38 37 35 32 31 30 29 28 27 27 25 24 24 24 22 20 19 17 16 15 14 14 12 13 14 13 12 12 11 10 10 10 10 12 11
43 46 46 46 47 48 48 47 47 47 47 48 49 49 48 48 48 48 47 47 46 45 43 43 42 42 41 40 40 42 43 44 46 47 47 46 46 46 45 44 43 41 40 41 40 39 39 38 39 39 39 39 36 34 32 31 30 29 28 26 25 23 23 24 23 21 19 18 16 16 15 14 13 13 13 12 12 12 11 10 9 10 10 11 11
42 45 45 45 47 47 46 45 46 46 47 48 48 48 48 48 48 48 48 47 46 45 44 43 39 40 43 39 38 43 44 44 46 47 46 46 45 46 47 47 46 43 42 42 42 40 39 39 39 40 40 39 37 35 34 33 31 30 27 26 25 24 23 24 25 22 20 18 18 17 16 15 14 14 14 14 13 13 12 11 10 10 10 11 10
40 43 45 46 46 46 45 45 45 45 46 47 47 47 47 46 46 48 48 48 46 40 40 40 33 32 38 34 31 37 43 45 46 47 46 46 45 45 47 48 48 46 44 44 43 42 41 40 40 41 41 40 38 36 36 35 33 31 29 27 26 26 25 25 26 25 23 21 19 18 18 17 15 15 16 15 14 13 12 11 10 10 12 12 13
40 42 45 46 46 45 44 44 45 45 46 47 47 47 47 45 46 47 47 49 47 37 34 36 31 28 32 30 26 30 37 43 47 46 46 46 44 44 45 46 48 48 46 45 46 44 43 42 41 41 40 40 39 38 37 37 34 31 31 30 28 28 28 26 26 26 25 24 22 20 19 19 17 17 16 14 13 12 12 11 11 12 13 13 13
42 43 44 44 44 44 44 44 45 45 45 46 47 47 47 46 46 47 47 48 46 38 34 33 30 27 29 30 30 29 31 38 45 47 46 46 44 45 46 46 48 49 48 48 47 46 46 44 43 42 41 40 40 39 38 38 35 32 32 31 30 29 28 27 25 25 24 24 22 20 19 19 19 17 15 13 13 13 12 12 12 12 11 10 9
43 44 43 42 42 42 43 44 44 44 45 46 47 47 46 46 46 47 48 47 44 43 40 34 30 29 30 32 33 32 30 35 43 46 46 46 45 46 47 47 49 50 50 50 49 49 49 48 47 44 42 41 41 39 39 38 35 34 33 32 31 29 27 26 25 24 23 24 23 22 21 21 19 17 16 15 15 14 13 11 9 7 7 6 5
42 43 42 41 42 42 42 43 44 44 45 45 46 45 45 46 45 45 46 45 44 44 42 38 35 32 31 32 32 31 31 34 39 44 46 47 46 46 46 47 49 51 51 50 51 51 49 49 49 47 44 43 42 40 40 38 35 35 35 32 31 29 26 25 25 23 24 26 24 23 23 22 20 18 17 16 16 15 13 10 7 6 6 5 3
40 41 42 41 41 41 41 41 41 41 42 43 44 44 44 44 44 43 43 43 44 41 37 37 38 33 30 33 33 31 32 34 37 41 45 45 44 44 45 47 49 51 51 51 52 53 50 48 49 49 46 44 43 42 41 39 35 36 35 32 31 30 27 26 24 23 24 26 26 24 24 23 21 19 18 16 16 15 13 10 8 8 7 5 4
34 36 38 39 40 39 38 37 37 38 40 42 42 42 42 42 42 43 42 40 41 40 37 36 36 32 32 33 32 32 33 33 35 40 42 42 42 43 44 47 50 52 52 51 52 53 51 46 46 49 49 46 44 44 43 39 36 36 36 33 32 31 28 26 26 23 22 25 26 25 24 23 21 20 18 17 16 14 12 10 9 8 7 5 4
29 30 32 35 36 36 35 35 36 37 38 39 40 40 41 41 41 41 41 37 36 38 38 37 34 32 33 32 30 33 36 33 34 38 41 42 43 43 44 47 49 50 51 52 52 53 53 46 40 44 49 48 45 45 43 40 36 35 35 33 31 31 28 27 26 23 20 22 23 22 22 22 20 19 18 17 16 14 12 10 9 8 7 5 5
25 27 28 31 32 33 34 34 35 36 36 37 39 39 39 39 40 40 39 36 36 37 39 39 35 32 33 32 32 36 37 35 35 39 42 44 45 46 46 47 47 47 49 51 52 53 53 48 43 45 49 48 46 45 44 41 36 34 34 31 30 31 29 27 26 22 19 20 20 19 19 18 17 17 18 17 15 14 12 9 8 8 7 6 7
22 24 26 28 30 31 31 32 32 33 34 35 35 36 37 38 39 40 39 38 37 35 34 35 35 34 33 34 35 36 35 35 37 41 43 43 45 47 48 47 46 47 48 51 52 52 52 50 49 50 49 45 45 46 45 42 37 34 33 32 31 31 30 28 27 23 20 20 19 20 20 17 16 18 19 16 15 14 11 10 9 8 8 8 9
21 22 22 24 26 28 28 29 30 30 31 32 32 34 36 36 37 38 36 33 32 30 28 29 33 33 33 33 35 35 33 34 38 42 43 43 44 45 45 45 46 48 49 51 50 48 48 48 47 49 48 44 43 45 46 42 37 34 34 32 31 30 29 29 27 24 23 23 23 23 22 18 18 21 20 17 16 14 12 11 10 9 8 9 10
20 20 19 20 22 23 25 27 28 28 28 29 31 33 34 35 36 35 30 25 25 25 26 28 31 32 32 33 35 34 33 34 38 42 44 44 44 44 44 43 44 46 50 51 45 38 38 39 40 42 44 43 43 45 44 40 36 35 34 32 31 31 30 31 29 26 27 28 27 24 21 18 20 23 21 19 19 16 12 12 11 10 9 10 11
17 16 16 17 18 20 21 22 23 24 25 25 27 29 30 32 33 32 27 24 24 24 24 26 30 32 33 33 33 33 34 35 38 41 44 45 46 47 46 45 44 44 47 50 45 37 36 38 39 41 42 42 45 47 44 39 35 34 33 33 34 33 33 34 33 30 30 30 27 23 19 18 21 24 23 21 19 16 13 12 11 10 10 11 12
14 14 15 16 17 17 18 19 19 19 20 22 23 23 23 24 25 26 25 25 26 27 26 26 28 32 33 33 31 32 34 36 39 43 46 46 47 49 50 48 46 44 46 49 48 45 44 43 42 42 42 42 44 44 41 38 37 37 36 37 37 34 34 35 33 31 31 31 27 21 18 20 24 26 24 20 18 16 14 13 12 10 9 10 13
11 12 13 13 14 15 16 18 18 17 17 19 20 20 20 20 21 23 24 25 27 29 30 30 30 31 32 32 33 34 35 35 37 42 47 48 47 48 49 49 49 49 50 52 52 50 50 48 45 43 41 39 38 37 37 38 40 41 41 40 37 34 33 35 33 30 30 28 24 21 21 24 27 26 22 19 18 17 15 14 13 12 10 12 14
8 8 9 9 10 12 12 14 15 15 15 17 18 20 21 21 21 22 23 24 26 27 29 31 31 30 31 32 34 36 37 36 34 38 44 45 44 45 47 48 50 51 51 52 53 51 49 48 47 45 43 40 38 37 38 40 42 43 41 39 35 33 34 36 34 31 28 26 24 24 27 28 27 25 22 19 18 18 17 16 16 14 13 14 15
6 6 6 6 6 6 7 8 9 11 13 14 15 18 19 19 21 23 25 26 28 29 30 32 33 32 34 36 36 37 38 37 34 36 41 43 43 44 45 45 48 51 49 50 54 53 50 48 47 46 46 45 43 42 42 43 45 43 40 37 36 36 37 37 34 29 27 26 26 27 29 29 26 24 21 19 18 18 17 17 17 16 16 16 15
7 6 6 5 4 4 5 5 6 7 9 10 11 13 14 15 18 21 24 27 29 31 33 35 36 37 39 41 43 42 42 41 40 41 45 47 46 45 44 44 47 50 49 50 56 58 54 52 52 51 50 49 47 46 46 45 45 43 40 39 41 41 39 37 33 29 28 28 28 29 30 28 26 23 20 18 17 16 15 16 15 16 17 17 15
10 9 8 7 5 5 4 3 4 5 6 8 10 12 13 14 15 18 20 23 27 30 33 36 39 41 43 46 48 48 48 49 49 50 52 53 54 51 47 46 48 49 50 52 58 59 57 56 56 55 53 51 48 47 45 45 45 44 43 44 43 42 40 37 33 30 29 29 30 31 30 28 25 22 19 18 17 15 15 16 16 16 17 17 16
13 12 12 11 9 8 7 6 4 3 2 3 4 6 8 10 12 14 16 18 20 23 26 29 32 36 40 44 47 50 51 52 53 55 57 58 58 57 53 52 51 49 50 56 60 59 57 57 57 56 53 51 49 46 45 46 46 44 44 44 44 42 40 36 31 30 30 30 31 32 30 27 23 21 19 18 17 16 16 17 16 16 17 17 16
13 12 11 10 9 8 7 6 5 4 2 1 1 2 4 5 7 8 10 11 13 14 16 18 21 24 29 33 38 43 46 49 52 56 59 60 61 60 57 56 54 51 53 59 63 60 57 57 58 57 56 53 50 48 48 47 44 42 42 42 39 38 37 34 31 30 30 30 31 31 29 25 22 20 19 18 16 16 18 18 17 17 19 18 16
11 10 9 8 8 7 5 4 4 3 2 2 2 2 3 5 6 7 10 12 14 16 18 19 20 22 24 27 31 36 41 46 49 52 54 57 60 60 59 57 55 55 57 61 62 61 60 59 58 56 54 52 51 50 48 44 42 43 43 39 35 35 35 34 31 29 30 31 31 29 26 24 22 21 19 17 15 17 19 19 19 19 19 18 16
9 8 8 7 6 5 4 3 3 2 2 3 4 4 5 6 7 8 10 13 16 18 19 19 20 21 21 21 25 30 35 40 44 46 48 49 51 54 58 59 58 59 61 62 62 60 60 59 57 55 54 53 51 47 41 39 40 41 39 36 36 37 37 34 31 30 30 32 31 27 25 24 23 21 18 16 16 19 20 19 18 18 18 18 16
8 7 6 6 5 4 3 3 3 2 3 5 5 5 5 6 7 9 11 13 15 17 18 19 21 21 20 16 14 16 20 25 31 36 42 44 44 48 56 62 63 62 62 60 59 59 58 56 54 54 53 50 46 40 37 37 38 38 37 37 39 39 35 31 29 29 30 32 31 28 26 25 23 20 18 16 17 20 20 19 18 18 18 18 17
6 5 4 4 4 3 2 2 2 2 3 5 4 4 4 5 7 9 11 12 13 15 17 18 19 20 20 19 16 15 16 17 20 25 32 38 40 43 51 59 61 60 60 59 58 58 56 53 51 51 50 47 42 38 37 37 36 37 39 41 39 35 31 28 27 28 30 31 30 29 28 24 20 18 17 17 19 20 19 18 18 17 17 19 19
5 4 3 3 3 3 2 2 2 2 3 4 4 5 6 7 7 8 10 11 12 14 15 14 14 16 18 18 18 19 19 21 22 24 28 32 34 37 43 47 47 49 54 57 57 54 52 50 49 49 46 42 38 36 35 36 38 40 41 39 36 33 30 29 28 29 30 30 29 28 27 24 18 17 17 18 19 19 19 18 18 17 17 18 17
5 4 3 3 3 3 3 3 3 3 3 3 4 6 7 7 7 8 9 10 12 14 14 12 11 12 13 15 18 19 20 22 23 23 23 22 20 24 33 39 42 46 51 53 53 50 49 47 46 42 37 33 33 34 36 37 40 40 39 36 35 33 31 30 30 30 31 31 27 25 24 22 19 18 20 20 19 19 18 18 17 17 17 17 15
5 5 5 4 4 4 5 4 3 3 4 4 4 5 6 6 7 7 7 8 11 13 13 10 8 9 11 13 16 17 18 19 18 14 10 5 8 18 24 29 37 45 49 50 51 50 47 43 38 34 32 32 34 36 37 38 39 38 37 36 35 33 31 31 31 31 31 29 25 22 21 20 19 20 20 19 19 19 18 17 17 17 17 17 16
6 6 6 6 6 6 5 5 5 4 4 5 5 5 6 6 6 6 6 7 8 11 11 9 6 8 10 10 12 13 15 13 9 3 2 7 14 18 16 14 18 26 32 38 42 42 38 34 32 30 31 32 33 34 36 38 38 37 36 36 34 33 31 31 31 31 29 27 23 21 20 20 20 20 19 19 19 19 18 17 16 16 17 17 16
7 7 7 7 7 7 6 5 5 5 6 7 7 6 6 6 6 6 6 6 6 8 8 6 5 6 7 7 9 11 11 9 7 6 9 13 17 19 19 18 19 22 26 30 32 31 29 29 31 31 30 30 32 33 35 37 37 37 36 35 33 32 31 29 29 29 27 25 22 21 20 19 19 20 19 19 19 18 18 17 17 16 16 16 16
8 8 8 8 7 7 7 7 6 6 7 7 7 7 6 5 6 6 6 5 6 6 5 4 2 1 3 4 6 8 7 6 7 10 13 16 18 20 22 23 23 25 27 29 29 27 25 27 30 30 29 30 31 32 33 35 35 34 34 33 32 31 29 27 27 28 27 24 22 21 20 20 19 19 19 19 19 18 17 17 17 17 17 17 16
11 10 10 10 9 9 9 9 8 7 6 6 6 6 6 5 5 5 5 5 4 4 5 6 6 4 1 1 1 2 3 3 6 8 10 13 15 17 20 22 22 22 24 27 28 27 25 26 29 31 31 32 32 32 32 33 32 31 31 31 31 30 29 27 26 27 26 23 21 20 20 20 19 19 19 19 19 18 17 16 17 17 17 17 16
13 13 13 13 13 13 12 12 11 10 9 8 7 7 6 5 5 4 5 5 5 4 6 8 9 9 6 1 2 2 2 1 2 3 3 5 7 8 12 15 17 17 17 19 22 24 25 27 30 31 31 32 32 31 31 32 31 30 29 29 29 29 28 26 25 25 24 23 20 19 19 19 19 19 19 18 17 17 17 16 17 17 17 17 17
13 13 12 13 14 14 13 13 13 13 13 13 12 10 8 7 6 5 5 6 5 5 6 8 7 8 8 3 2 4 4 4 2 0 2 3 5 7 9 12 13 14 14 14 16 20 24 27 29 30 29 30 31 31 30 30 30 29 28 27 27 26 25 24 23 23 22 21 20 18 18 18 18 18 18 18 17 16 16 16 17 17 17 17 16
15 14 13 14 14 15 15 15 14 14 14 15 15 14 13 11 8 6 6 7 7 7 5 7 6 4 5 4 4 5 5 4 3 2 2 3 5 8 10 12 12 13 15 18 20 23 25 27 28 29 28 28 29 28 27 26 26 27 26 25 24 24 24 24 23 21 21 20 19 18 17 17 17 16 17 17 17 16 16 17 17 17 17 17 16
19 18 18 18 17 17 16 16 15 15 15 15 16 17 17 16 14 10 6 6 7 7 5 4 3 2 3 4 4 5 6 6 4 3 4 6 6 8 10 12 12 13 15 18 20 22 24 25 27 27 27 26 26 26 25 25 26 26 25 24 24 26 26 25 24 22 21 20 19 18 17 16 16 16 16 16 16 17 17 18 19 18 17 17 17
20 20 20 20 20 19 17 17 17 18 18 18 19 19 19 19 19 18 13 8 5 2 1 1 1 1 2 2 2 4 7 8 5 3 6 8 7 10 13 13 12 12 13 15 18 21 23 24 25 25 24 24 24 24 25 26 26 26 25 25 26 28 27 25 23 23 21 19 17 16 16 15 15 15 15 15 16 18 18 19 19 18 18 17 17
22 21 21 21 21 21 21 20 20 20 19 19 20 20 19 19 21 22 22 19 15 12 10 9 7 5 4 3 2 2 3 5 3 2 1 2 3 9 14 13 12 12 14 16 18 20 21 22 23 23 23 23 24 23 24 25 25 25 26 27 27 26 24 23 22 21 20 18 16 15 15 14 14 14 14 15 16 17 18 19 19 18 17 17 17
Wind_Direction
227 228 227 228 230 231 232 232 232 232 233 234 235 236 237 236 235 234 235 236 234 232 231 230 231 232 232 231 231 232 231 228 230 231 228 229 232 231 230 230 229 224 222 228 233 234 233 231 231 230 228 227 226 224 226 230 226 218 215 213 213 216 219 222 229 240 238 233 230 225 229 235 244 250 238 237 250 245 239 254 260 260 267 271 273
228 228 228 228 229 231 233 233 233 233 234 235 236 237 238 238 237 235 235 236 235 234 232 231 231 232 233 233 231 232 232 229 228 230 230 230 233 233 231 232 231 227 224 228 232 234 235 233 232 232 229 227 227 224 222 228 228 222 221 216 210 214 221 220 220 226 233 239 235 228 237 240 236 243 239 228 238 243 240 253 262 265 270 270 271
229 230 229 229 229 229 231 233 234 234 235 236 237 238 239 240 240 237 235 235 236 236 234 233 233 232 233 234 233 232 233 231 228 229 231 231 232 234 233 233 232 229 228 230 232 233 235 234 234 235 232 228 228 225 221 224 226 222 222 222 213 212 221 222 216 216 220 229 229 224 238 248 238 240 244 231 234 245 250 256 265 271 277 280 280
227 230 231 231 230 231 231 232 233 234 234 235 236 237 239 240 241 240 237 235 236 237 236 235 235 233 233 233 233 232 232 232 230 229 231 232 232 233 235 235 234 231 230 232 233 233 234 235 234 236 236 232 229 227 223 223 227 225 223 226 224 215 216 222 222 218 216 218 222 218 223 239 243 245 249 244 244 251 254 258 267 276 282 288 288
224 229 232 232 232 232 232 232 233 234 234 234 235 236 237 238 240 240 238 235 235 237 236 234 234 233 232 232 232 232 231 231 231 230 231 233 232 232 234 236 235 233 232 233 234 235 235 235 235 236 238 236 232 229 227 226 228 229 226 228 231 223 216 221 228 227 220 214 218 225 231 240 244 248 252 252 248 250 254 260 266 272 277 284 285
221 227 232 233 233 233 233 233 234 234 235 235 236 236 236 237 238 240 239 236 235 236 236 235 233 232 231 232 232 232 231 231 231 230 230 232 233 232 233 236 236 234 232 232 234 235 236 236 236 237 238 238 235 232 231 230 229 229 230 229 231 230 224 224 230 233 230 222 218 226 238 244 245 248 253 253 249 249 255 262 268 273 278 282 285
220 225 230 233 234 235 236 235 235 235 235 236 236 237 237 237 238 239 240 240 237 235 236 235 233 231 231 232 232 232 231 230 231 230 230 231 233 232 232 234 236 234 232 232 233 234 236 235 235 237 238 238 237 235 233 232 230 229 230 230 230 230 228 227 232 236 234 228 224 228 235 241 245 248 252 254 254 255 258 261 262 267 273 278 286
219 224 228 231 235 237 238 238 238 238 237 237 237 237 237 237 237 237 238 240 240 237 236 237 235 233 232 232 232 232 231 231 230 230 229 230 231 232 232 233 235 235 233 232 231 233 235 235 235 236 238 238 237 237 235 233 232 231 231 230 230 230 228 228 233 235 230 224 225 228 230 237 243 243 246 255 259 257 257 258 259 266 273 277 287
218 223 227 232 236 237 237 238 239 239 239 239 239 239 238 238 237 236 236 239 240 239 238 238 238 236 233 232 232 232 232 231 231 229 228 228 230 232 233 233 233 235 236 234 232 232 233 235 235 236 238 238 237 237 238 235 233 233 232 231 230 230 229 229 230 229 225 221 223 226 227 234 239 238 236 243 251 253 252 257 267 275 277 275 282
220 224 227 232 235 236 237 238 240 240 240 240 240 240 240 239 238 237 237 238 240 240 239 239 239 238 235 233 232 232 232 231 231 230 229 228 229 231 232 233 233 234 236 236 233 232 232 235 237 237 238 239 237 237 238 237 233 233 235 235 234 234 231 228 227 227 223 220 221 223 226 230 235 237 237 238 242 248 250 257 268 274 276 280 287
221 226 228 231 233 234 237 239 240 241 241 241 241 241 240 240 239 239 238 239 240 241 240 239 240 239 238 236 234 233 233 233 232 231 230 228 229 231 232 234 234 233 236 237 235 233 232 234 237 238 238 239 238 237 237 237 234 231 234 238 239 238 235 230 227 226 224 222 221 221 224 227 229 234 242 244 244 246 248 254 266 272 276 282 290
224 229 229 229 232 235 238 239 240 241 242 241 240 240 241 240 240 240 240 240 241 242 242 241 241 240 240 239 237 235 235 235 235 234 232 229 229 231 233 234 235 234 235 237 238 236 234 234 236 238 239 238 238 237 236 236 235 231 232 237 240 239 237 234 231 229 227 225 223 222 224 226 229 236 242 243 241 244 249 256 267 273 271 276 286
223 229 229 229 233 237 238 239 241 241 241 241 240 240 242 242 242 243 243 243 243 243 243 242 241 241 240 239 239 239 238 237 237 237 235 232 230 231 233 235 236 236 236 238 240 239 238 236 237 238 239 238 237 237 237 236 235 231 230 234 238 239 237 235 234 233 233 232 229 228 229 229 232 237 240 240 241 246 253 260 266 266 265 273 282
218 226 230 231 234 237 238 239 241 241 241 241 241 241 243 244 244 244 244 244 243 241 240 241 237 236 237 236 235 239 240 239 239 239 238 236 232 232 233 236 237 237 237 239 241 242 241 240 238 239 240 239 236 236 237 237 234 232 231 231 235 239 239 238 235 232 231 233 235 236 237 238 237 239 243 248 253 254 255 258 259 259 268 279 287
218 225 231 233 234 236 237 238 239 240 241 241 241 242 244 244 245 244 243 243 242 238 237 239 235 229 232 232 229 233 237 239 241 240 240 238 235 233 234 235 237 238 237 239 241 242 243 242 241 241 241 240 237 235 237 238 235 231 232 234 236 240 243 243 239 234 231 235 239 240 241 242 239 241 248 252 253 252 250 252 256 263 275 286 296
220 226 232 235 237 237 237 239 239 239 239 240 240 241 243 244 244 243 242 242 241 239 238 237 231 227 231 231 230 230 231 235 240 241 241 240 236 234 232 233 236 237 237 238 239 241 243 243 242 241 240 240 239 236 237 239 237 232 232 235 237 240 246 248 243 237 235 237 238 235 236 239 238 240 246 249 249 250 250 254 263 270 279 289 300
223 227 232 235 237 238 238 239 240 239 239 239 240 242 243 243 244 243 243 241 240 241 241 236 229 229 231 232 233 232 229 232 237 240 241 241 237 233 230 231 234 236 236 237 238 239 241 241 241 240 240 239 238 236 237 239 239 236 233 235 238 240 243 246 244 239 234 234 234 231 230 235 238 240 246 249 250 251 249 253 260 260 260 276 294
228 230 233 234 236 237 238 240 240 240 240 241 243 243 243 243 244 244 244 243 242 242 240 236 235 235 231 230 233 232 230 233 236 238 240 241 239 235 231 230 232 234 235 235 236 238 239 240 240 239 239 239 237 235 236 238 239 238 234 234 238 239 236 237 240 238 233 231 230 230 232 236 238 242 247 248 248 248 246 244 236 218 221 245 268
231 231 233 233 235 237 239 240 242 243 243 244 244 243 243 244 244 245 247 246 245 242 237 235 239 238 231 232 235 234 231 232 235 238 240 241 239 236 233 231 232 233 235 235 236 238 239 240 240 239 238 238 238 235 235 237 237 237 235 233 234 236 232 229 232 236 233 229 228 229 232 234 237 242 245 246 245 244 242 236 221 210 219 235 248
232 233 234 235 237 240 241 243 244 244 244 244 243 244 244 244 245 246 247 245 244 242 238 235 236 234 232 234 236 235 232 231 233 236 238 240 240 237 234 233 233 233 234 235 236 237 238 239 240 239 237 236 237 236 235 236 236 236 235 232 233 236 231 224 227 235 235 230 229 231 231 233 238 241 242 242 242 239 237 233 223 221 227 228 236
237 237 237 237 238 241 243 244 245 245 245 244 244 243 244 244 245 247 246 242 240 241 241 238 235 233 233 234 233 234 235 233 233 236 237 239 241 239 235 234 235 234 234 235 235 237 238 238 237 238 237 235 234 235 236 236 236 236 235 233 235 236 228 219 224 234 232 226 227 229 229 232 236 237 238 241 239 234 235 235 227 226 232 226 227
236 238 238 237 237 239 242 243 244 245 245 245 244 244 245 245 247 248 245 241 238 241 243 242 238 233 233 236 234 235 238 236 234 236 237 237 239 240 238 236 234 234 235 235 236 237 238 238 238 240 240 237 233 234 237 237 236 235 235 234 233 232 225 219 224 230 223 217 221 222 224 228 228 227 232 236 233 229 231 232 225 222 223 225 233
226 233 236 237 235 237 241 244 246 246 246 247 247 247 248 247 247 247 246 242 241 241 242 243 239 233 233 237 236 236 237 237 235 237 239 238 238 240 241 239 235 234 235 236 237 237 236 237 238 241 242 240 234 233 236 238 237 234 233 233 232 230 225 222 225 224 214 211 218 221 224 226 221 221 224 222 218 220 219 216 222 232 237 243 256
223 230 234 236 234 233 236 242 247 248 249 249 248 248 248 246 244 244 244 242 240 237 236 239 239 235 235 237 236 235 236 236 237 240 242 242 242 242 242 241 237 235 236 237 236 236 235 234 236 238 239 238 234 233 235 238 236 234 233 231 229 226 221 219 221 218 210 212 221 225 225 222 216 219 222 213 208 215 213 210 224 245 255 261 269
227 231 234 236 234 232 233 238 244 248 250 249 248 248 247 244 243 243 241 237 236 236 235 237 238 237 237 237 236 237 236 234 237 242 245 245 245 245 245 244 239 236 237 237 233 231 230 228 228 232 235 234 231 231 234 236 235 231 229 226 222 218 214 213 215 214 212 217 223 223 220 217 215 219 220 212 210 217 219 219 232 248 259 265 270
225 227 229 230 229 229 230 233 240 246 249 249 248 249 248 245 245 244 239 233 236 237 236 236 237 238 238 238 237 239 238 236 240 246 247 246 246 247 247 248 244 239 238 238 234 228 225 222 223 229 231 228 226 228 230 230 227 223 221 221 219 214 209 208 212 214 213 215 218 216 214 216 215 215 216 214 216 222 224 227 238 248 253 260 265
219 220 221 223 223 225 225 225 228 235 242 243 242 243 243 242 242 241 237 235 238 239 237 238 239 239 240 240 240 241 241 240 242 247 248 246 245 246 246 247 246 241 237 236 233 230 227 225 226 231 231 225 222 223 224 222 218 215 215 215 215 212 207 207 212 214 212 212 214 213 211 213 213 213 214 216 219 223 226 231 237 236 239 251 256
214 217 218 219 222 222 222 224 225 224 229 235 234 232 233 234 237 240 239 238 239 240 241 242 242 242 243 244 244 243 242 240 240 246 250 248 245 245 246 246 243 239 236 233 230 228 227 225 225 227 228 224 219 215 214 213 212 212 212 210 209 208 206 206 210 212 211 211 212 208 205 208 212 213 214 215 219 224 227 233 236 231 227 237 245
190 200 198 199 213 217 217 227 232 228 227 232 234 234 235 234 236 241 243 243 242 241 243 244 246 248 248 248 246 244 245 244 243 246 253 256 255 254 255 253 248 245 241 235 228 225 224 223 222 222 222 221 217 212 209 207 206 206 205 204 203 204 204 205 207 207 206 208 208 205 205 209 212 212 211 214 219 224 228 235 240 238 231 230 237
145 154 159 168 190 198 198 213 229 231 229 233 239 245 249 249 245 244 245 246 245 245 244 245 248 249 248 248 248 247 248 251 252 253 258 264 267 265 264 263 260 254 246 234 225 223 222 220 219 220 220 219 216 212 208 204 200 197 196 198 202 204 205 206 206 202 202 209 212 211 211 212 211 210 211 215 219 222 230 239 242 241 240 237 239
128 135 146 156 169 181 190 207 225 231 235 239 241 245 254 260 258 254 252 251 251 252 252 253 254 254 253 253 254 254 254 254 256 257 260 265 268 267 266 266 260 253 245 234 224 220 220 219 219 220 221 219 215 212 208 201 197 195 194 197 202 204 204 204 202 198 202 211 215 216 215 212 212 213 213 212 213 217 228 238 238 238 242 242 239
116 121 124 125 131 142 155 180 209 223 234 244 247 248 253 259 262 265 264 260 257 257 256 256 256 256 256 256 257 258 258 256 256 257 258 261 263 264 264 264 257 249 244 237 225 217 216 217 217 217 217 216 213 210 204 198 195 196 197 197 198 201 202 202 198 197 204 210 212 213 212 211 212 215 211 208 210 212 222 235 238 236 238 239 237
113 114 116 113 112 113 115 121 128 144 184 223 247 258 264 267 271 275 278 276 273 270 267 265 263 261 260 260 260 260 260 259 258 257 257 258 260 260 260 260 256 251 245 234 221 213 213 214 214 215 214 211 208 205 200 196 196 198 199 199 198 198 199 199 197 200 207 210 209 209 211 211 211 210 207 208 212 214 220 232 239 237 235 236 236
114 113 110 105 104 105 109 116 118 115 115 97 353 316 309 307 305 310 317 319 315 310 305 297 288 279 272 267 264 262 261 260 258 258 257 257 257 258 258 257 255 252 246 233 220 214 212 211 210 211 210 207 205 203 198 197 198 201 202 201 198 197 197 198 200 204 208 208 207 208 211 211 208 206 205 207 213 219 225 231 236 237 237 237 235
106 103 99 95 95 97 101 112 120 120 111 78 42 22 12 5 360 356 353 348 342 337 331 321 308 296 285 275 266 260 257 255 253 254 255 257 257 257 256 252 246 241 236 226 217 214 213 210 207 207 206 204 202 199 197 196 198 200 200 198 197 197 198 200 203 204 206 207 206 207 209 209 206 206 208 208 214 224 230 230 230 232 235 235 234
103 100 100 97 93 92 95 97 95 81 76 76 69 58 45 29 16 7 359 354 351 345 339 335 329 321 312 297 282 272 267 263 258 254 253 255 258 256 251 245 238 232 224 214 208 209 210 208 205 203 201 199 196 193 193 196 197 198 198 198 196 197 200 203 202 200 202 205 204 204 206 206 206 208 209 211 220 228 229 227 224 225 229 231 231
103 107 110 106 100 94 91 94 91 72 62 68 68 57 44 29 18 11 4 359 355 349 345 349 353 351 349 345 328 309 297 286 275 264 255 251 254 256 252 246 240 229 215 203 200 203 204 201 199 197 195 193 191 189 191 195 198 199 198 196 196 199 202 204 201 199 202 204 203 204 207 207 207 210 212 215 223 227 225 222 222 224 227 228 227
87 93 99 102 97 84 72 79 87 61 49 55 49 34 25 19 13 11 8 2 356 350 349 357 7 12 14 14 10 358 343 322 301 282 265 255 253 253 247 241 233 220 204 197 198 200 197 194 192 191 189 188 187 187 189 193 197 198 195 193 196 201 201 199 200 203 204 203 203 208 211 208 205 212 217 218 220 221 219 219 222 223 225 225 225
63 68 83 97 92 77 66 67 49 22 24 33 23 12 14 13 6 5 7 4 356 350 349 357 11 17 16 15 13 8 358 346 332 315 296 281 267 250 235 227 217 204 194 193 195 193 189 187 186 184 182 183 184 185 187 192 196 196 193 193 197 199 197 197 202 206 205 203 204 209 212 208 204 213 219 216 213 215 216 217 219 220 221 224 226
48 48 56 71 73 58 45 44 35 14 4 7 5 2 6 7 359 355 1 3 357 352 353 360 10 16 17 19 17 12 9 6 360 346 329 310 279 239 220 214 207 197 191 190 189 185 182 181 177 173 171 174 179 183 189 194 195 194 193 194 196 196 197 201 205 206 205 204 203 207 210 207 204 208 213 212 212 215 216 216 217 219 221 223 224
43 44 42 45 55 49 36 27 24 12 357 355 358 353 353 355 349 344 349 354 353 354 357 1 12 22 27 26 22 21 25 27 20 7 353 326 218 197 193 195 195 191 186 182 180 177 174 169 165 164 166 171 178 186 193 194 193 191 192 193 194 196 199 203 206 208 207 203 201 201 203 202 201 204 208 210 212 214 214 214 217 219 221 223 224
44 46 42 39 42 43 33 21 14 4 353 352 347 331 329 337 337 333 338 342 345 348 350 352 11 33 36 33 31 37 47 52 51 52 138 166 171 168 159 155 163 166 162 159 159 160 159 158 161 166 171 177 184 191 193 191 190 190 190 191 194 198 201 202 207 208 204 199 199 200 199 200 203 205 207 210 211 212 212 214 216 219 222 224 225
42 42 40 38 37 37 33 25 17 5 357 356 347 330 323 329 330 329 331 328 322 325 328 333 0 35 48 54 57 58 63 76 99 130 155 163 160 152 140 129 131 138 142 144 150 155 158 162 167 172 177 183 188 189 189 189 189 189 189 191 196 200 201 201 204 204 200 196 198 200 199 201 204 205 206 208 209 210 213 215 217 220 224 226 225
39 36 36 35 34 32 28 29 26 14 3 1 354 342 335 334 330 331 333 328 323 323 318 304 296 32 71 82 81 70 65 85 118 135 147 154 153 149 146 144 147 155 158 160 163 168 170 169 171 175 180 184 184 184 186 187 187 188 190 193 197 201 200 198 199 200 199 197 197 200 201 202 202 204 206 207 207 210 214 216 218 222 226 227 227
45 41 36 33 31 27 24 26 26 18 9 6 359 349 344 337 330 328 332 333 329 311 279 259 240 212 150 58 64 55 51 86 128 140 146 151 153 155 158 160 163 169 174 175 175 177 180 180 177 176 178 180 180 182 184 185 186 188 191 195 200 203 200 197 198 200 200 198 196 198 201 201 202 204 206 206 209 213 215 218 222 224 226 228 228
51 48 44 40 36 32 29 28 27 23 19 15 8 355 346 340 334 331 332 333 326 306 294 281 252 221 207 239 290 284 325 11 115 127 134 147 152 159 169 172 172 175 183 189 187 182 181 181 178 176 178 179 178 180 184 186 188 190 194 199 205 206 201 196 198 200 201 200 198 198 200 201 202 205 207 208 213 217 218 221 225 226 227 229 228
55 56 57 53 45 39 35 34 34 33 29 24 19 14 4 352 341 330 322 320 314 314 331 329 289 234 211 203 256 263 275 294 301 125 139 166 180 179 175 175 179 182 186 187 182 174 173 174 174 175 178 179 179 183 188 191 193 196 200 203 204 201 196 195 198 199 201 201 198 197 199 201 203 207 210 212 215 218 219 223 227 228 227 229 228
54 55 59 57 51 46 43 40 39 40 37 31 27 27 24 18 6 344 317 303 295 294 318 344 330 272 218 197 208 229 238 246 253 256 238 211 197 183 173 170 171 171 167 166 166 167 168 170 173 177 181 182 184 189 192 192 195 199 200 197 196 195 195 196 197 198 199 199 196 195 199 203 204 208 212 213 217 221 224 227 231 231 229 228 226
60 59 58 56 52 49 46 41 40 43 45 42 40 40 37 35 32 21 354 315 296 291 298 322 329 278 225 209 208 215 225 229 229 244 252 233 200 181 179 176 167 158 157 160 165 168 169 173 179 183 185 186 188 189 190 191 195 198 196 192 194 200 202 201 201 200 199 196 194 195 199 202 205 209 214 217 221 225 227 230 232 232 229 226 225
66 63 61 58 56 54 52 49 49 51 52 50 49 50 51 52 52 49 44 35 17 355 351 341 291 229 211 217 209 210 226 234 227 237 268 262 225 192 188 182 168 162 168 173 174 175 177 181 185 187 186 187 188 189 192 196 198 198 195 196 202 208 209 208 208 208 203 195 190 193 198 202 207 213 218 221 224 226 228 229 230 228 226 224 223
65 63 61 60 58 57 57 56 55 55 53 49 48 50 53 56 58 58 56 53 53 61 71 75 76 83 93 101 115 144 226 248 234 191 260 283 196 187 191 190 182 185 191 190 187 186 186 186 188 189 188 189 191 194 198 202 202 200 201 206 211 213 212 211 212 211 203 191 186 192 199 203 209 216 220 224 227 227 227 226 223 221 222 222 221